[[[{"header":{"parameterUnit":"kt","parameterCategory":2,"dx":1,"dy":1,"la1":30.253999710083008,"la2":30.299108505249023,"lo1":-89.0895004272461,"lo2":-89.04439544677734,"nx":28,"ny":28,"refTime":"2022-10-28T21:00:00:Z","depth":"0","parameterNumber":2,"parameterNumberName":"U-component_of_CURRENTS"},"data":[0.6248,0.6205,0.6201,0.6057,0.6049,0.5919,0.5904,0.5859,0.5921,0.5778,0.5668,0.5747,0.5939,0.5786,0.5461,0.5316,0.4989,0.4649,0.4761,0.5483,0.5574,0.5661,0.5457,0.479,0.4789,0.3633,0.3624,0.3617,0.632,0.6337,0.6394,0.6405,0.6353,0.6488,0.6584,0.6516,0.6503,0.6695,0.681,0.6745,0.6586,0.6585,0.6295,0.5992,0.5777,0.5832,0.549,0.543,0.6343,0.6141,0.561,0.561,0.561,0.561,0.5611,0.5611,0.647,0.6472,0.6564,0.6594,0.6667,0.6722,0.6717,0.6889,0.7023,0.7142,0.7483,0.7517,0.7547,0.7506,0.7436,0.7052,0.7102,0.6803,0.678,0.6602,0.6249,0.7112,0.6944,0.6949,0.6953,0.6956,0.696,0,0.654,0.6599,0.6677,0.6744,0.6818,0.6919,0.7068,0.7154,0.7442,0.7591,0.7815,0.7985,0.816,0.8012,0.8023,0.799,0.77,0.792,0.7825,0.703,0.6636,0.6468,0.7567,0.7497,0.7505,0.7511,0.7515,0.7519,0.6638,0.6667,0.6827,0.6867,0.695,0.7076,0.7161,0.7417,0.7526,0.7893,0.7954,0.8242,0.8372,0.8568,0.848,0.851,0.8342,0.8118,0.7936,0.7703,0.7641,0.7412,0.7259,0.7606,0.7595,0.7585,0.7578,0,0.6686,0.6805,0.6882,0.7058,0.711,0.7169,0.7406,0.75,0.7734,0.7914,0.7993,0.8286,0.8468,0.8638,0.8815,0.8716,0.8509,0.8704,0.8288,0.8234,0.779,0.7724,0.7385,0.7189,0.8491,0.8486,0.8482,0,0.6813,0.6867,0.7026,0.707,0.7159,0.7306,0.7441,0.7574,0.7801,0.7924,0.8127,0.8246,0.8453,0.8607,0.8644,0.8648,0.8831,0.8526,0.853,0.8218,0.8167,0.7967,0.7879,0.8828,0.8827,0.8826,0.8825,0,0.6851,0.6998,0.7072,0.7128,0.731,0.7378,0.7488,0.7677,0.7786,0.7995,0.8096,0.8278,0.8379,0.8488,0.8561,0.8528,0.8751,0.8723,0.8518,0.8502,0.8151,0.8093,0.8079,0.8823,0.8823,0.8823,0.8822,0,0.696,0.7029,0.7121,0.7274,0.7308,0.7385,0.7558,0.766,0.786,0.7926,0.806,0.8129,0.8289,0.8222,0.8422,0.8375,0.8402,0.844,0.8448,0.8131,0.8081,0.7854,0.7958,0.7796,0.8498,0.8496,0.8494,0,0.6985,0.7073,0.7154,0.7257,0.7308,0.7433,0.753,0.7642,0.7734,0.7844,0.7933,0.8018,0.7984,0.8037,0.8129,0.8205,0.8285,0.818,0.8288,0.8288,0.8045,0.8221,0.7858,0.7939,0.846,0.8464,0.8466,0,0.6979,0.7128,0.7141,0.7186,0.732,0.7368,0.748,0.7593,0.7658,0.7725,0.7815,0.7896,0.7912,0.7926,0.7953,0.8038,0.8223,0.8011,0.8012,0.8055,0.845,0.8205,0.8204,0.8283,0.8287,0.829,0.844,0,0.7063,0.7108,0.7144,0.7215,0.728,0.7357,0.7428,0.7492,0.7512,0.7544,0.7655,0.7664,0.7707,0.7762,0.773,0.7898,0.7875,0.786,0.7764,0.7926,0.7967,0.7989,0.7669,0.7664,0.7661,0.7658,0,0,0.7035,0.7068,0.7116,0.7161,0.7211,0.7271,0.7318,0.7362,0.7394,0.7424,0.7388,0.7467,0.7457,0.7579,0.7631,0.7639,0.7676,0.7597,0.7841,0.7862,0.7881,0.793,0.7955,0.7652,0.7651,0.7649,0.7648,0,0.7046,0.7067,0.7088,0.715,0.7217,0.7243,0.7273,0.7305,0.7316,0.7361,0.7324,0.7377,0.7391,0.7417,0.743,0.7586,0.7549,0.7621,0.7702,0.781,0.7835,0.7858,0.7911,0.7936,0.764,0.764,0.7641,0,0.7031,0.705,0.7064,0.7115,0.7144,0.7195,0.7161,0.7218,0.7253,0.7169,0.7189,0.7198,0.7186,0.7263,0.7291,0.724,0.7428,0.7352,0.737,0.731,0.7412,0.7442,0.7469,0.712,0.7119,0.7118,0,0,0.703,0.7056,0.7093,0.7113,0.7141,0.7154,0.7175,0.7175,0.7179,0.7174,0.7141,0.7122,0.7151,0.7161,0.7159,0.7227,0.7205,0.7294,0.7319,0.7339,0.7293,0.7398,0.7428,0.7113,0.7113,0.7113,0,0,0.7027,0.7055,0.7049,0.7057,0.7118,0.7129,0.7153,0.7143,0.7141,0.712,0.7057,0.7048,0.7111,0.7069,0.7016,0.7153,0.7045,0.7055,0.7196,0.7225,0.7249,0.7192,0.6926,0,0,0,0,0,0.7054,0.706,0.7056,0.7059,0.7065,0.7138,0.7141,0.7119,0.7074,0.7113,0.7071,0.7015,0.7038,0.6989,0.6984,0.7083,0.7055,0.7066,0.7075,0.7272,0.7303,0.733,0,0,0,0,0,0,0.7055,0.7058,0.7056,0.7064,0.7067,0.7134,0.7052,0.7046,0.707,0.7064,0.7023,0.7013,0.6964,0.6986,0.6983,0.708,0.6927,0.7059,0.7068,0.7076,0.7282,0.7308,0.7331,0,0,0,0,0,0.7057,0.7059,0.7068,0.7064,0.7066,0.7054,0.7049,0.7044,0.7056,0.701,0.7,0.7045,0.6966,0.6961,0.6984,0.7084,0.6928,0.6927,0.7065,0.7072,0.7078,0.7295,0,0,0,0,0,0,0.7058,0.7044,0.7068,0.7069,0.7048,0.7051,0.7047,0.7043,0.6998,0.6992,0.7025,0.702,0.6968,0.6963,0.6959,0.7092,0.693,0.6929,0.6928,0.707,0.7076,0.708,0,0,0,0,0,0,0.7044,0.7044,0.7068,0.705,0.7048,0.7048,0.7045,0.7043,0.6996,0.7013,0.701,0.7024,0.6969,0.6965,0.6962,0.6959,0.6931,0.693,0.6929,0.6929,0.7075,0.7079,0,0,0,0,0,0,0.7044,0.7044,0.7048,0.7047,0.7045,0.7048,0.7044,0.7041,0.7009,0.7014,0.7004,0.7002,0.6972,0.6968,0.6964,0.6963,0.696,0.6931,0.693,0.693,0.6929,0,0,0,0,0,0,0,0.7044,0.704,0.7073,0.7045,0.7043,0.7081,0.708,0.708,0.7009,0.7007,0.7005,0.7003,0.6935,0.6935,0.6934,0.6967,0,0,0.6931,0.693,0,0,0,0,0,0,0,0,0.7039,0.704,0.7073,0.7074,0.7074,0.7081,0.708,0.708,0.7008,0.7007,0.7005,0.7004,0.6935,0.6934,0.6934,0,0,0,0,0,0,0,0,0,0,0,0,0,0,0,0.7073,0.7074,0,0.7081,0.708,0.708,0.7008,0.7007,0.7006,0.7004,0.6935,0.6934,0.6934,0,0,0,0,0,0,0,0,0,0,0,0,0,0,0,0,0,0,0,0,0,0,0,0,0,0,0,0,0,0,0,0,0,0,0,0,0,0,0,0,0,0,0,0,0,0,0,0,0,0,0,0,0,0,0,0,0,0,0,0,0,0,0,0,0,0,0,0,0]}],[{"header":{"parameterUnit":"kt","parameterCategory":2,"dx":1,"dy":1,"la1":30.253999710083008,"la2":30.299108505249023,"lo1":-89.0895004272461,"lo2":-89.04439544677734,"nx":28,"ny":28,"refTime":"2022-10-28T21:00:00:Z","depth":"0","parameterNumber":3,"parameterNumberName":"V-component_of_CURRENTS"},"data":[0.1218,0.1393,0.1478,0.1826,0.2003,0.2294,0.2487,0.2861,0.3173,0.3637,0.3812,0.3875,0.3236,0.1109,-0.0306,-0.063,-0.1022,-0.1124,-0.1347,-0.0961,-0.0929,-0.0898,-0.0953,-0.1221,-0.1223,-0.1825,-0.1831,-0.1836,0.1153,0.1262,0.1442,0.1674,0.1879,0.195,0.2264,0.2481,0.2873,0.3216,0.3469,0.3323,0.2589,0.1753,0.0547,-0.0093,-0.0317,-0.0441,-0.0594,-0.0642,-0.0057,-0.0077,-0.0163,-0.0163,-0.0162,-0.0162,-0.0162,-0.0162,0.1042,0.1136,0.1277,0.1472,0.1645,0.1875,0.205,0.2274,0.2556,0.2885,0.291,0.3102,0.248,0.1688,0.1209,0.0322,0.0287,0.0033,-0.0117,-0.0214,-0.0329,0.0311,0.0298,0.0297,0.0297,0.0296,0.0296,0,0.0948,0.0998,0.1099,0.1303,0.1448,0.1615,0.1788,0.1932,0.2053,0.2247,0.2487,0.2547,0.2184,0.1827,0.1217,0.0911,0.0258,0.0413,0.0142,-0.0053,-0.0185,-0.0305,0.0333,0.038,0.0379,0.0379,0.0379,0.0379,0.0829,0.0904,0.1046,0.1146,0.1199,0.1341,0.1462,0.152,0.165,0.1824,0.1947,0.1897,0.1942,0.1561,0.1086,0.0699,0.0413,0.0422,0.0299,0.0044,-0.015,-0.0273,-0.0346,0.0375,0.0376,0.0376,0.0376,0,0.077,0.0801,0.0921,0.101,0.1059,0.1159,0.1296,0.1399,0.1439,0.162,0.1648,0.1589,0.1496,0.1208,0.0975,0.0698,0.0366,0.0405,0.0487,0.0453,0.0032,-0.0114,-0.0312,-0.0407,0.0239,0.0238,0.0238,0,0.0672,0.0749,0.0803,0.0862,0.1002,0.0992,0.1134,0.1154,0.1222,0.1361,0.1222,0.1318,0.1035,0.0951,0.0726,0.0529,0.0578,0.03,0.0258,0.031,0.0309,0.0073,-0.0077,0.0324,0.0324,0.0324,0.0324,0,0.0569,0.0649,0.0743,0.0765,0.0828,0.088,0.0913,0.0945,0.1015,0.1033,0.1095,0.0986,0.0978,0.0819,0.0618,0.0566,0.0505,0.0405,0.0256,0.0251,0.0285,0.0281,0.0106,0.0324,0.0324,0.0324,0.0324,0,0.0473,0.0525,0.0631,0.0696,0.0719,0.0761,0.0833,0.0864,0.088,0.0879,0.0844,0.0779,0.073,0.0606,0.0483,0.0488,0.0371,0.0293,0.029,0.0238,0.0152,0.0212,0.027,0.0016,0.022,0.0219,0.0219,0,0.0378,0.0472,0.0459,0.0548,0.06,0.0569,0.0616,0.0625,0.0614,0.0652,0.0563,0.0574,0.0431,0.0425,0.037,0.0294,0.0261,0.0249,0.0184,0.0183,0.0153,0.0199,0.0259,0.026,0.0212,0.0213,0.0213,0,0.0299,0.0333,0.0345,0.0384,0.0386,0.0408,0.0438,0.0464,0.051,0.0453,0.0508,0.0413,0.036,0.0337,0.0259,0.0237,0.0243,0.0181,0.0178,0.019,0.0233,0.0193,0.0193,0.0208,0.0209,0.0211,0.0207,0,0.0235,0.0264,0.0284,0.0314,0.0319,0.0347,0.0331,0.0338,0.0316,0.0303,0.0299,0.0221,0.0199,0.0161,0.0116,0.0129,0.0113,0.007,0.0053,0.0091,0.008,0.0085,0.0008,0.0006,0.0005,0.0004,0,0,0.0161,0.0199,0.0168,0.0202,0.0216,0.0165,0.0209,0.0198,0.0178,0.019,0.0152,0.0108,0.0055,0.0059,0.0058,0.0023,0.0019,0.0044,0.0063,0.007,0.0076,0.0069,0.0075,0.0002,0.0002,0.0001,0.0001,0,0.0142,0.0129,0.016,0.016,0.0157,0.0143,0.0148,0.0129,0.0126,0.013,0.0083,0.0052,0.0027,0.0001,-0.0016,0.0008,-0.0019,-0.0008,0.0066,0.0053,0.0061,0.0069,0.0064,0.007,-0.0002,-0.0002,-0.0002,0,0.0098,0.0095,0.01,0.0098,0.009,0.0111,0.0064,0.0068,0.0087,0.0021,0.004,-0.0006,-0.0044,-0.0046,-0.0051,-0.0063,-0.0048,-0.0066,-0.0061,-0.0029,-0.0043,-0.0034,-0.0026,-0.0129,-0.0129,-0.0129,0,0,0.0087,0.0097,0.0081,0.0093,0.0093,0.0067,0.0062,0.0048,0.0032,0.0025,0.0001,-0.0026,-0.0047,-0.0054,-0.0076,-0.0078,-0.0088,-0.0078,-0.0072,-0.0067,-0.0033,-0.0045,-0.0037,-0.013,-0.013,-0.013,0,0,0.0077,0.0068,0.0056,0.0071,0.0061,0.0036,0.0043,0.0022,0.0008,0.0007,-0.0032,-0.0039,-0.0044,-0.007,-0.007,-0.0082,-0.0111,-0.0112,-0.0054,-0.0047,-0.0041,0.0008,-0.0105,0,0,0,0,0,0.0051,0.007,0.006,0.0059,0.0044,0.0041,0.0037,0.0016,-0.0,0.0007,-0.0016,-0.0041,-0.0076,-0.0077,-0.0084,-0.0072,-0.0134,-0.0134,-0.0133,-0.006,-0.0052,-0.0045,0,0,0,0,0,0,0.0051,0.0051,0.0059,0.0036,0.0033,0.004,0.0012,0.0006,-0.0001,-0.0003,-0.0036,-0.0042,-0.0066,-0.0076,-0.0082,-0.007,-0.0104,-0.0134,-0.0133,-0.0133,-0.0057,-0.0051,-0.0045,0,0,0,0,0,0.005,0.005,0.0037,0.0035,0.0032,0.0007,0.0012,0.0007,0.0001,-0.0034,-0.004,-0.0013,-0.0066,-0.0072,-0.008,-0.0066,-0.01,-0.0102,-0.0134,-0.0133,-0.0133,-0.0054,0,0,0,0,0,0,0.005,0.004,0.0035,0.0033,0.0034,0.0006,0.0003,0.0008,-0.003,-0.0036,-0.0012,-0.0014,-0.0065,-0.007,-0.0075,-0.0063,-0.0097,-0.0099,-0.01,-0.0133,-0.0133,-0.0132,0,0,0,0,0,0,0.004,0.0038,0.0034,0.0034,0.0031,0.0006,0.0003,-0.0016,-0.003,-0.0007,-0.0009,-0.0013,-0.006,-0.0069,-0.0073,-0.0102,-0.0095,-0.0097,-0.0098,-0.0099,-0.0133,-0.0133,0,0,0,0,0,0,0.0038,0.0037,0.0035,0.0032,0.003,-0.0002,-0.0013,-0.0028,-0.0025,-0.0005,-0.0025,-0.0026,-0.0058,-0.0062,-0.0071,-0.0098,-0.0101,-0.0095,-0.0096,-0.0097,-0.0098,0,0,0,0,0,0,0,0.0037,0.0057,0.0052,0.0031,0.0029,0.0009,0.0008,0.0007,-0.0025,-0.0025,-0.0025,-0.0026,-0.0084,-0.0086,-0.0088,-0.0096,0,0,-0.0095,-0.0096,0,0,0,0,0,0,0,0,0.0056,0.0056,0.0052,0.0052,0.0051,0.0008,0.0008,0.0007,-0.0025,-0.0025,-0.0025,-0.0025,-0.0085,-0.0086,-0.0088,0,0,0,0,0,0,0,0,0,0,0,0,0,0,0,0.0052,0.0052,0,0.0008,0.0008,0.0007,-0.0025,-0.0025,-0.0025,-0.0025,-0.0085,-0.0086,-0.0088,0,0,0,0,0,0,0,0,0,0,0,0,0,0,0,0,0,0,0,0,0,0,0,0,0,0,0,0,0,0,0,0,0,0,0,0,0,0,0,0,0,0,0,0,0,0,0,0,0,0,0,0,0,0,0,0,0,0,0,0,0,0,0,0,0,0,0,0,0]}]],[[{"header":{"parameterUnit":"kt","parameterCategory":2,"dx":1,"dy":1,"la1":30.253999710083008,"la2":30.299108505249023,"lo1":-89.0895004272461,"lo2":-89.04439544677734,"nx":28,"ny":28,"refTime":"2022-10-28T21:00:00:Z","depth":"2","parameterNumber":2,"parameterNumberName":"U-component_of_CURRENTS"},"data":[0.43,0.4229,0.4227,0.4099,0.4133,0.3998,0.3962,0.387,0.3898,0.3819,0.3812,0.4173,0.4346,0.3684,0.3601,0.3309,0.3604,0.3177,0.457,0.4508,0.4583,0.48,0.4492,0,0,0,0,0,0.4368,0.44,0.4429,0.444,0.4391,0.4533,0.4577,0.4498,0.4456,0.4649,0.4746,0.4436,0.4354,0.4473,0.4189,0.419,0.4126,0.4009,0.3875,0.397,0.4053,0.3781,0.3131,0.3125,0.312,0.3115,0,0,0.4497,0.4511,0.4558,0.4618,0.4682,0.4719,0.4719,0.4846,0.4948,0.5086,0.5369,0.5396,0.5498,0.5369,0.5207,0.5108,0.5528,0.5263,0.5291,0.533,0.5129,0.5006,0.4833,0.4839,0.4845,0.485,0.4854,0,0.4589,0.4646,0.4679,0.476,0.4828,0.4939,0.5073,0.5158,0.5415,0.5574,0.5745,0.5882,0.6105,0.5917,0.5991,0.5928,0.5972,0.5807,0.6599,0.5426,0.5308,0.5287,0.5311,0.5226,0.5235,0.5241,0.5246,0.525,0.4679,0.4714,0.4851,0.4884,0.4946,0.5092,0.5171,0.542,0.5515,0.5876,0.5916,0.6212,0.6313,0.6502,0.6454,0.6496,0.6608,0.6013,0.5828,0.6437,0.6418,0.6404,0.6391,0.5347,0.5334,0.5324,0.5316,0,0.4735,0.4804,0.4872,0.5024,0.5078,0.5156,0.5388,0.5485,0.571,0.5877,0.5952,0.6241,0.6413,0.6559,0.6691,0.6639,0.6667,0.6622,0.6095,0.602,0.6426,0.6406,0.6553,0.6548,0.6544,0.6541,0.6538,0,0.4839,0.4861,0.5009,0.5023,0.5122,0.5259,0.5394,0.5515,0.5724,0.5852,0.6046,0.6169,0.6354,0.6489,0.6509,0.6547,0.668,0.6454,0.6448,0.6006,0.5952,0.648,0.6457,0.6662,0.666,0.6659,0.6657,0,0.4876,0.4994,0.5034,0.5076,0.5234,0.5296,0.539,0.5575,0.5682,0.5874,0.6001,0.6176,0.6282,0.6369,0.643,0.6403,0.6592,0.6552,0.6415,0.6404,0.5982,0.5925,0.6655,0.6655,0.6655,0.6654,0.6653,0,0.4964,0.501,0.5077,0.5207,0.524,0.5309,0.5458,0.5543,0.5732,0.5816,0.5966,0.6049,0.6176,0.6115,0.6301,0.6249,0.6275,0.6289,0.6297,0.6093,0.6023,0.5708,0.5755,0.6364,0.6361,0.6358,0.6356,0,0.4959,0.5042,0.5105,0.518,0.5232,0.5316,0.5403,0.5512,0.5608,0.5733,0.5806,0.5915,0.5906,0.5958,0.6019,0.6063,0.613,0.6015,0.6167,0.6171,0.5972,0.6112,0.5609,0.5736,0.632,0.6324,0.6326,0,0.4966,0.5084,0.5078,0.5126,0.5218,0.5257,0.5349,0.5442,0.5531,0.5621,0.5729,0.5803,0.5852,0.5875,0.588,0.5925,0.6068,0.5914,0.5916,0.5976,0.6275,0.6087,0.6093,0.6081,0.6084,0.6087,0.6298,0,0.5039,0.5076,0.5091,0.515,0.52,0.5231,0.5302,0.5366,0.5418,0.5476,0.5598,0.5605,0.569,0.5716,0.5688,0.5816,0.5832,0.5795,0.5724,0.5843,0.592,0.5943,0.5645,0.5643,0.5641,0.564,0,0,0.5003,0.5037,0.506,0.5111,0.5141,0.5178,0.522,0.5266,0.5315,0.5358,0.5354,0.5492,0.548,0.5572,0.561,0.5611,0.567,0.5609,0.5783,0.5799,0.5814,0.5894,0.5918,0.5636,0.5636,0.5635,0.5635,0,0.4997,0.5035,0.5048,0.5087,0.5136,0.5156,0.5181,0.5226,0.5253,0.5318,0.5318,0.5371,0.5432,0.5445,0.5463,0.5579,0.5592,0.5628,0.5691,0.5766,0.5785,0.5801,0.5883,0.5905,0.563,0.5631,0.5631,0,0.4991,0.501,0.5008,0.5063,0.508,0.5128,0.512,0.5161,0.5203,0.5168,0.5233,0.5258,0.5273,0.5338,0.537,0.5332,0.5508,0.5435,0.5446,0.5439,0.5512,0.5534,0.5553,0.5298,0.5297,0.5296,0,0,0.4988,0.4991,0.5031,0.506,0.5084,0.5107,0.5133,0.5147,0.5161,0.5174,0.5184,0.5207,0.5244,0.5256,0.5279,0.533,0.5343,0.5395,0.5411,0.5424,0.5424,0.55,0.5522,0.5292,0.5292,0.5292,0,0,0.4968,0.4983,0.4992,0.5045,0.5068,0.5081,0.5112,0.5131,0.5156,0.516,0.5142,0.5141,0.5207,0.5192,0.514,0.5278,0.5214,0.5224,0.5279,0.5298,0.5313,0.5306,0.5096,0,0,0,0,0,0.4935,0.4977,0.4986,0.4998,0.5048,0.5078,0.5086,0.5105,0.5116,0.514,0.5142,0.512,0.517,0.5121,0.5122,0.5201,0.524,0.5249,0.5258,0.5342,0.5363,0.538,0,0,0,0,0,0,0.4939,0.495,0.4985,0.4998,0.5011,0.5076,0.5059,0.5065,0.5113,0.5114,0.5121,0.5119,0.5093,0.5119,0.512,0.5197,0.5095,0.5243,0.5251,0.5258,0.5349,0.5366,0.538,0,0,0,0,0,0.4943,0.4952,0.5029,0.4998,0.5009,0.5044,0.5058,0.5063,0.5104,0.5087,0.5087,0.5122,0.5093,0.5094,0.512,0.5198,0.5095,0.5095,0.5248,0.5255,0.526,0.5357,0,0,0,0,0,0,0.4945,0.495,0.5032,0.5037,0.4992,0.5042,0.5048,0.5061,0.5073,0.5076,0.5083,0.5082,0.5093,0.5094,0.5094,0.5202,0.5094,0.5094,0.5095,0.5253,0.5258,0.5262,0,0,0,0,0,0,0.4946,0.4953,0.5034,0.5026,0.5029,0.5039,0.5045,0.5052,0.5071,0.5066,0.5068,0.5082,0.5084,0.5094,0.5094,0.5105,0.5093,0.5094,0.5094,0.5094,0.5257,0.5261,0,0,0,0,0,0,0.495,0.4956,0.5024,0.5027,0.503,0.508,0.5043,0.5088,0.5091,0.5064,0.5089,0.5089,0.5084,0.5085,0.5094,0.5105,0.5105,0.5093,0.5094,0.5094,0.5094,0,0,0,0,0,0,0,0.4953,0.4902,0.501,0.5028,0.5031,0.5081,0.5081,0.5082,0.5091,0.509,0.509,0.5089,0.5091,0.5091,0.5092,0.5105,0,0,0.5093,0.5093,0,0,0,0,0,0,0,0,0.49,0.4901,0.501,0.5011,0.5013,0.5081,0.5081,0.5082,0.509,0.509,0.509,0.5089,0.5091,0.5091,0.5092,0,0,0,0,0,0,0,0,0,0,0,0,0,0,0,0.501,0.5011,0,0.5081,0.5081,0.5082,0.509,0.509,0.509,0.5089,0.5091,0.5091,0.5092,0,0,0,0,0,0,0,0,0,0,0,0,0,0,0,0,0,0,0,0,0,0,0,0,0,0,0,0,0,0,0,0,0,0,0,0,0,0,0,0,0,0,0,0,0,0,0,0,0,0,0,0,0,0,0,0,0,0,0,0,0,0,0,0,0,0,0,0,0]}],[{"header":{"parameterUnit":"kt","parameterCategory":2,"dx":1,"dy":1,"la1":30.253999710083008,"la2":30.299108505249023,"lo1":-89.0895004272461,"lo2":-89.04439544677734,"nx":28,"ny":28,"refTime":"2022-10-28T21:00:00:Z","depth":"2","parameterNumber":3,"parameterNumberName":"V-component_of_CURRENTS"},"data":[0.1379,0.1541,0.1618,0.1929,0.209,0.2366,0.2548,0.2789,0.2942,0.3055,0.3,0.2886,0.2184,0.155,0.0877,0.0389,0.0296,0.0287,0.0419,0.0587,0.0599,0.0126,0.0176,0,0,0,0,0,0.1323,0.1423,0.1591,0.1812,0.2001,0.2081,0.2382,0.255,0.281,0.2927,0.2989,0.2501,0.2005,0.1414,0.0578,0.0083,0.0047,-0.0096,-0.0031,-0.0022,-0.0015,0.0006,-0.0096,-0.0098,-0.01,-0.0101,0,0,0.1221,0.1313,0.1451,0.1636,0.1806,0.2029,0.2201,0.2379,0.2592,0.2755,0.2699,0.263,0.2125,0.1346,0.0809,0.0234,0.0271,0.0045,0.005,0.0055,0.0078,0.0094,-0.0003,-0.0003,-0.0004,-0.0004,-0.0004,0,0.1138,0.1184,0.1293,0.1484,0.1627,0.1809,0.198,0.2108,0.2219,0.2324,0.2426,0.2381,0.1942,0.1502,0.0886,0.0584,0.0257,0.0166,0.0201,0.0203,0.0224,0.018,0.0185,0.0146,0.0147,0.0147,0.0147,0.0147,0.1028,0.1102,0.1254,0.1349,0.1404,0.1558,0.1681,0.1751,0.1867,0.1958,0.2043,0.1904,0.1841,0.136,0.09,0.0467,0.0392,0.0191,0.0136,0.017,0.0124,0.013,0.0135,0.0152,0.0151,0.0151,0.0151,0,0.0973,0.1014,0.114,0.1241,0.129,0.1396,0.1545,0.1642,0.1664,0.18,0.1811,0.1694,0.1512,0.1198,0.0895,0.064,0.0382,0.0276,0.034,0.0295,0.0144,0.0147,0.0087,0.0085,0.0083,0.0082,0.008,0,0.0887,0.0968,0.1037,0.1098,0.1243,0.125,0.139,0.1407,0.1458,0.1567,0.1418,0.146,0.1167,0.1022,0.0772,0.0515,0.0548,0.0291,0.0237,0.0277,0.0275,0.0279,0.0277,0.0311,0.0311,0.0312,0.0313,0,0.0784,0.0883,0.0987,0.1015,0.1093,0.1144,0.1187,0.1209,0.1277,0.1262,0.1295,0.1165,0.1135,0.094,0.0698,0.0671,0.0502,0.0435,0.0262,0.0256,0.0247,0.024,0.0313,0.0314,0.0314,0.0314,0.0314,0,0.0701,0.0762,0.0876,0.0962,0.0985,0.1028,0.1101,0.114,0.1133,0.1119,0.107,0.099,0.092,0.0809,0.0631,0.0656,0.0514,0.0413,0.0406,0.0339,0.0258,0.0226,0.0244,0.0295,0.0295,0.0295,0.0296,0,0.061,0.0712,0.0711,0.081,0.0865,0.0843,0.0892,0.0899,0.088,0.0897,0.0808,0.0805,0.068,0.0667,0.0599,0.0489,0.0436,0.0466,0.031,0.0306,0.0273,0.0294,0.0331,0.0252,0.0301,0.03,0.03,0,0.0531,0.0581,0.0594,0.0639,0.065,0.0676,0.0711,0.0735,0.0771,0.0713,0.0749,0.067,0.0608,0.0584,0.051,0.0468,0.0437,0.0399,0.0394,0.0371,0.0348,0.0304,0.0296,0.0394,0.0394,0.0395,0.0304,0,0.0472,0.0507,0.0533,0.0567,0.0577,0.0613,0.0598,0.0604,0.0577,0.0556,0.0548,0.0477,0.0448,0.0414,0.0373,0.037,0.0336,0.0296,0.0272,0.0304,0.0256,0.0254,0.0261,0.026,0.0258,0.0257,0,0,0.0391,0.0439,0.0413,0.0449,0.0468,0.0417,0.0464,0.0452,0.0431,0.0439,0.04,0.0348,0.0302,0.0309,0.0311,0.028,0.0247,0.0292,0.0285,0.0289,0.0292,0.0249,0.0248,0.0255,0.0254,0.0254,0.0253,0,0.0374,0.0367,0.0403,0.0407,0.0407,0.0393,0.0398,0.0377,0.0371,0.0377,0.0326,0.0296,0.0271,0.0248,0.0232,0.0262,0.0208,0.0243,0.0316,0.0275,0.028,0.0284,0.0244,0.0244,0.025,0.025,0.025,0,0.0323,0.0325,0.0336,0.034,0.0332,0.0354,0.03,0.0308,0.0328,0.0257,0.0274,0.0228,0.019,0.0194,0.019,0.0176,0.0175,0.0178,0.0184,0.0207,0.0163,0.0169,0.0175,0.0105,0.0104,0.0104,0,0,0.0309,0.033,0.0315,0.0334,0.0334,0.0304,0.0298,0.0284,0.0267,0.0259,0.0232,0.0204,0.0185,0.018,0.016,0.0164,0.0132,0.0164,0.0171,0.0177,0.0203,0.0161,0.0167,0.0104,0.0104,0.0104,0,0,0.0299,0.0297,0.0284,0.0305,0.0299,0.0273,0.028,0.0253,0.0238,0.0236,0.0193,0.0187,0.0187,0.0161,0.0161,0.0152,0.0118,0.0118,0.0186,0.0193,0.02,0.0239,0.0122,0,0,0,0,0,0.0277,0.03,0.0289,0.0289,0.0277,0.0279,0.0274,0.0248,0.0223,0.0232,0.0207,0.018,0.0153,0.0153,0.0147,0.0161,0.0099,0.01,0.0101,0.0187,0.0196,0.0203,0,0,0,0,0,0,0.0277,0.0279,0.0288,0.0266,0.0262,0.0278,0.0241,0.0234,0.0222,0.0219,0.0185,0.0179,0.0156,0.0153,0.0149,0.0163,0.0123,0.01,0.01,0.0101,0.019,0.0197,0.0204,0,0,0,0,0,0.0277,0.0279,0.0272,0.0264,0.0261,0.0231,0.024,0.0234,0.0222,0.0191,0.0184,0.0205,0.0157,0.0152,0.015,0.0166,0.0126,0.0125,0.01,0.0101,0.0101,0.0194,0,0,0,0,0,0,0.0277,0.0263,0.027,0.0267,0.0262,0.0229,0.0226,0.0235,0.0194,0.0188,0.021,0.0208,0.0158,0.0153,0.0149,0.0169,0.0128,0.0127,0.0126,0.0101,0.0101,0.0101,0,0,0,0,0,0,0.0262,0.0262,0.0268,0.0267,0.0264,0.0228,0.0226,0.0211,0.0194,0.0215,0.0212,0.0209,0.0166,0.0155,0.0151,0.0129,0.013,0.0129,0.0128,0.0127,0.0101,0.0101,0,0,0,0,0,0,0.0261,0.026,0.0268,0.0265,0.0262,0.0224,0.0214,0.0203,0.0194,0.0217,0.0193,0.0192,0.0168,0.0164,0.0153,0.0132,0.0129,0.013,0.0129,0.0128,0.0128,0,0,0,0,0,0,0,0.026,0.028,0.0291,0.0263,0.026,0.0239,0.0238,0.0237,0.0194,0.0193,0.0193,0.0192,0.0139,0.0137,0.0136,0.0134,0,0,0.013,0.013,0,0,0,0,0,0,0,0,0.0279,0.028,0.0291,0.029,0.029,0.0239,0.0238,0.0237,0.0194,0.0193,0.0193,0.0192,0.0139,0.0137,0.0136,0,0,0,0,0,0,0,0,0,0,0,0,0,0,0,0.029,0.029,0,0.0239,0.0238,0.0237,0.0193,0.0193,0.0193,0.0193,0.0138,0.0137,0.0136,0,0,0,0,0,0,0,0,0,0,0,0,0,0,0,0,0,0,0,0,0,0,0,0,0,0,0,0,0,0,0,0,0,0,0,0,0,0,0,0,0,0,0,0,0,0,0,0,0,0,0,0,0,0,0,0,0,0,0,0,0,0,0,0,0,0,0,0,0]}]],[[{"header":{"parameterUnit":"kt","parameterCategory":2,"dx":1,"dy":1,"la1":30.253999710083008,"la2":30.299108505249023,"lo1":-89.0895004272461,"lo2":-89.04439544677734,"nx":28,"ny":28,"refTime":"2022-10-28T21:00:00:Z","depth":"4","parameterNumber":2,"parameterNumberName":"U-component_of_CURRENTS"},"data":[0.2111,0.2185,0.2194,0.216,0.2179,0.2262,0.2361,0.2543,0.2558,0.2878,0.2964,0.3222,0.3389,0.3572,0.3566,0.3609,0.3543,0.4015,0.4005,0.405,0.4075,0.4098,0.3935,0,0,0,0,0,0.2177,0.2178,0.2266,0.2343,0.2469,0.2541,0.2723,0.2837,0.3114,0.3117,0.3293,0.3438,0.3556,0.3702,0.363,0.3929,0.402,0.3825,0.3843,0.4066,0.4094,0.3926,0,0,0,0,0,0,0.2266,0.2294,0.243,0.2534,0.2676,0.2697,0.2805,0.2926,0.3058,0.3449,0.3486,0.3775,0.4032,0.4028,0.4096,0.4095,0.4016,0.3849,0.3886,0.3914,0.3745,0.3562,0.344,0,0,0,0,0,0.2337,0.2447,0.2531,0.2682,0.2805,0.2899,0.3073,0.3126,0.3403,0.3675,0.3806,0.3901,0.4075,0.4162,0.4241,0.4254,0.4422,0.4362,0.4374,0.4241,0.414,0.4138,0.414,0.4199,0.4202,0.4204,0.4206,0,0.2462,0.2498,0.2715,0.2789,0.2889,0.3053,0.3153,0.3397,0.3507,0.3865,0.3921,0.4193,0.4335,0.433,0.4486,0.4522,0.4478,0.4436,0.4294,0.4183,0.4176,0.4171,0.4164,0.4228,0.4226,0.4224,0.4223,0,0.2528,0.2643,0.2732,0.2924,0.2995,0.3088,0.3325,0.3427,0.3674,0.3862,0.3949,0.4214,0.4375,0.4511,0.4662,0.4543,0.4558,0.4512,0.4685,0.4691,0.4213,0.4197,0.4265,0.4257,0.425,0.4244,0.4239,0,0.265,0.2713,0.2887,0.2922,0.3036,0.3165,0.3322,0.3462,0.3682,0.3812,0.4014,0.4136,0.4324,0.4457,0.4487,0.4476,0.4664,0.4356,0.4353,0.453,0.4514,0.4484,0.4461,0.4673,0.4672,0.4672,0.4671,0,0.2712,0.2833,0.29,0.2943,0.3094,0.3183,0.329,0.3485,0.3595,0.3828,0.3953,0.4115,0.4245,0.4338,0.4425,0.4394,0.4588,0.4554,0.4353,0.4335,0.447,0.4448,0.467,0.467,0.4669,0.4669,0.4669,0,0.2791,0.2855,0.2929,0.3052,0.3082,0.3161,0.3344,0.3439,0.3636,0.3744,0.3899,0.3986,0.4123,0.4109,0.4283,0.4245,0.4297,0.4324,0.4331,0.4032,0.3982,0.4177,0.4368,0.4366,0.4363,0.4361,0.4359,0,0.2819,0.289,0.2947,0.3034,0.3069,0.3176,0.3273,0.3384,0.3511,0.3654,0.3744,0.3875,0.3874,0.396,0.4039,0.4102,0.4179,0.4087,0.4208,0.421,0.3962,0.4079,0.4206,0.4325,0.4329,0.4332,0.4334,0,0.2816,0.2918,0.2939,0.2981,0.3088,0.3121,0.3233,0.3332,0.343,0.3543,0.3668,0.3768,0.3833,0.3856,0.389,0.396,0.4122,0.3964,0.3966,0.4001,0.4331,0.4069,0.4064,0.4186,0.419,0.4193,0.4311,0,0.2847,0.2903,0.2932,0.3005,0.3058,0.3105,0.3171,0.326,0.3349,0.3403,0.3551,0.3604,0.3699,0.3733,0.3726,0.3861,0.3849,0.3846,0.3785,0.3904,0.3935,0.3955,0.3684,0.3681,0.3679,0.3677,0,0,0.2837,0.2867,0.2918,0.2957,0.2998,0.3061,0.3096,0.3154,0.324,0.3296,0.3328,0.3479,0.3503,0.3599,0.3646,0.3657,0.37,0.3641,0.3836,0.3854,0.387,0.3907,0.3928,0.3673,0.3672,0.3671,0.367,0,0.2813,0.2869,0.29,0.2941,0.3005,0.3026,0.3061,0.3114,0.3174,0.3267,0.3291,0.338,0.3455,0.3483,0.3504,0.362,0.3615,0.3652,0.3713,0.3813,0.3834,0.3853,0.3894,0.3914,0.3665,0.3665,0.3665,0,0.2795,0.2826,0.2849,0.2899,0.2935,0.2969,0.2984,0.3044,0.3095,0.3098,0.3213,0.3256,0.3274,0.336,0.3404,0.3369,0.3533,0.3468,0.3481,0.3446,0.3543,0.3568,0.3589,0.3311,0.331,0.3309,0,0,0.2786,0.2829,0.285,0.289,0.2912,0.2953,0.2987,0.3018,0.3065,0.3104,0.315,0.3196,0.3243,0.3283,0.3307,0.3376,0.3372,0.3429,0.3446,0.346,0.3434,0.3534,0.3557,0.3306,0.3306,0.3306,0,0,0.2771,0.2803,0.2828,0.2861,0.2903,0.2917,0.2966,0.2999,0.3073,0.31,0.3113,0.3125,0.3228,0.3212,0.3173,0.3304,0.323,0.3238,0.333,0.335,0.3367,0.333,0.3129,0,0,0,0,0,0.2767,0.279,0.2812,0.2821,0.2865,0.2897,0.2907,0.2961,0.2998,0.3044,0.3096,0.3079,0.3197,0.3162,0.3166,0.3243,0.3266,0.3273,0.328,0.3413,0.3435,0.3453,0,0,0,0,0,0,0.277,0.2777,0.2812,0.2819,0.283,0.2895,0.2903,0.2917,0.2996,0.3008,0.3068,0.3077,0.3068,0.3158,0.3162,0.3237,0.3128,0.3269,0.3275,0.328,0.3421,0.3438,0.3454,0,0,0,0,0,0.2772,0.2778,0.2839,0.282,0.2829,0.2896,0.2905,0.2917,0.2999,0.2999,0.3014,0.305,0.3065,0.3074,0.316,0.3236,0.3125,0.3126,0.3273,0.3278,0.3282,0.3429,0,0,0,0,0,0,0.2774,0.2787,0.2842,0.2847,0.2841,0.2898,0.2909,0.2917,0.2988,0.3001,0.2972,0.2979,0.3063,0.307,0.3077,0.3239,0.3122,0.3124,0.3125,0.3276,0.328,0.3283,0,0,0,0,0,0,0.2784,0.279,0.2845,0.2868,0.2876,0.2899,0.2909,0.2918,0.2988,0.2957,0.2965,0.2975,0.306,0.3067,0.3073,0.3083,0.312,0.3122,0.3123,0.3124,0.3279,0.3282,0,0,0,0,0,0,0.2788,0.2793,0.2867,0.2873,0.2881,0.294,0.2908,0.2956,0.2997,0.2953,0.3004,0.3007,0.3055,0.3062,0.3069,0.3077,0.3082,0.312,0.3121,0.3122,0.3123,0,0,0,0,0,0,0,0.2791,0.2742,0.2814,0.2878,0.2884,0.2893,0.2894,0.2895,0.2997,0.3,0.3003,0.3005,0.3111,0.3113,0.3114,0.3072,0,0,0.312,0.3121,0,0,0,0,0,0,0,0,0.2741,0.2742,0.2814,0.2815,0.2816,0.2893,0.2894,0.2895,0.2998,0.3,0.3002,0.3004,0.3111,0.3113,0.3114,0,0,0,0,0,0,0,0,0,0,0,0,0,0,0,0.2814,0.2815,0,0.2893,0.2894,0.2895,0.2998,0.3,0.3002,0.3004,0.3112,0.3113,0.3114,0,0,0,0,0,0,0,0,0,0,0,0,0,0,0,0,0,0,0,0,0,0,0,0,0,0,0,0,0,0,0,0,0,0,0,0,0,0,0,0,0,0,0,0,0,0,0,0,0,0,0,0,0,0,0,0,0,0,0,0,0,0,0,0,0,0,0,0,0]}],[{"header":{"parameterUnit":"kt","parameterCategory":2,"dx":1,"dy":1,"la1":30.253999710083008,"la2":30.299108505249023,"lo1":-89.0895004272461,"lo2":-89.04439544677734,"nx":28,"ny":28,"refTime":"2022-10-28T21:00:00:Z","depth":"4","parameterNumber":3,"parameterNumberName":"V-component_of_CURRENTS"},"data":[0.0973,0.1098,0.1162,0.1361,0.1479,0.1668,0.1787,0.1849,0.1844,0.1867,0.1657,0.1564,0.1165,0.1421,0.0767,0.0682,0.0527,0.0156,0.0148,-0.0052,-0.0046,-0.004,0.0036,0,0,0,0,0,0.0953,0.1032,0.1169,0.1336,0.1495,0.16,0.1777,0.1842,0.192,0.1903,0.1882,0.1676,0.1259,0.108,0.0788,0.0699,0.0319,0.034,0.0176,-0.0048,-0.0041,0.0031,0,0,0,0,0,0,0.0918,0.0988,0.1113,0.1269,0.1432,0.1589,0.1671,0.1762,0.1843,0.187,0.1849,0.1611,0.1473,0.1038,0.0748,0.0457,0.0382,0.0264,0.0254,0.0258,0.0359,0.0435,0.0385,0,0,0,0,0,0.0877,0.0936,0.103,0.1202,0.1332,0.1489,0.1631,0.17,0.1785,0.1803,0.1763,0.1548,0.1331,0.099,0.0671,0.0383,0.0168,0.0066,0.0068,0.0072,0.0102,0.0063,0.0074,-0.0013,-0.0013,-0.0012,-0.0012,0,0.0825,0.089,0.1045,0.113,0.119,0.1333,0.1437,0.151,0.1585,0.1625,0.1662,0.1511,0.1394,0.0976,0.069,0.0291,0.0225,0.0086,0.0092,0.0115,0.0071,0.0081,0.009,-0.0006,-0.0006,-0.0007,-0.0007,0,0.0797,0.085,0.0964,0.1072,0.1124,0.1216,0.1358,0.143,0.1452,0.1531,0.1533,0.1415,0.1224,0.0967,0.0682,0.0498,0.0262,0.0169,0.0297,0.025,0.0097,0.0103,0.0004,0.0002,-0.0,-0.0002,-0.0003,0,0.0756,0.083,0.0916,0.0966,0.1094,0.1119,0.1237,0.1256,0.1296,0.1363,0.1253,0.1257,0.1026,0.0876,0.0671,0.0436,0.0448,0.0258,0.0203,0.0302,0.0307,0.0265,0.0267,0.0262,0.0263,0.0264,0.0265,0,0.0692,0.0787,0.0878,0.0906,0.0987,0.1039,0.1084,0.1104,0.1158,0.1139,0.1155,0.1051,0.1017,0.0846,0.0635,0.063,0.0428,0.0391,0.024,0.0235,0.0272,0.0272,0.0266,0.0266,0.0266,0.0267,0.0267,0,0.0644,0.0697,0.0797,0.0881,0.0903,0.0948,0.1013,0.1051,0.1045,0.1035,0.1,0.0937,0.0874,0.08,0.0627,0.0662,0.0534,0.0435,0.0427,0.0375,0.0307,0.0294,0.0302,0.0303,0.0304,0.0305,0.0306,0,0.0579,0.0666,0.0674,0.0763,0.0809,0.0803,0.0849,0.0862,0.0851,0.0865,0.0801,0.08,0.0725,0.0715,0.0653,0.0545,0.0486,0.0538,0.0356,0.0351,0.0323,0.0323,0.0454,0.032,0.0318,0.0317,0.0316,0,0.0519,0.0574,0.0584,0.0625,0.0643,0.0668,0.0704,0.0729,0.0759,0.0729,0.0756,0.0713,0.0669,0.0655,0.06,0.055,0.0499,0.0492,0.0487,0.0442,0.0373,0.0342,0.033,0.0457,0.0456,0.0456,0.0325,0,0.0482,0.0517,0.0538,0.0571,0.0584,0.0615,0.0611,0.0624,0.0614,0.0602,0.0605,0.0558,0.0544,0.0521,0.0494,0.0483,0.0448,0.0416,0.039,0.0412,0.0349,0.0342,0.0407,0.0406,0.0405,0.0404,0,0,0.0418,0.046,0.0444,0.0475,0.0494,0.046,0.05,0.0498,0.0494,0.0502,0.048,0.0456,0.0427,0.0433,0.0441,0.0419,0.0377,0.043,0.0404,0.0405,0.0405,0.0347,0.0342,0.0402,0.0401,0.0401,0.0401,0,0.0402,0.0404,0.0435,0.0441,0.0446,0.044,0.0445,0.0438,0.044,0.0456,0.0422,0.0405,0.0401,0.0384,0.0374,0.0405,0.0351,0.0395,0.0452,0.0397,0.0399,0.04,0.0344,0.034,0.0398,0.0398,0.0398,0,0.0361,0.0365,0.0377,0.0386,0.0385,0.0406,0.0367,0.0379,0.0401,0.0351,0.0378,0.0349,0.0326,0.0337,0.0339,0.0326,0.032,0.0337,0.0341,0.0362,0.0303,0.0306,0.0308,0.0278,0.0278,0.0278,0,0,0.0346,0.0367,0.036,0.0381,0.0383,0.0367,0.0367,0.036,0.0354,0.0353,0.034,0.0327,0.0319,0.0319,0.0311,0.0321,0.0282,0.0325,0.033,0.0335,0.0358,0.0302,0.0304,0.0277,0.0277,0.0277,0,0,0.0336,0.034,0.0333,0.0358,0.0356,0.0342,0.0353,0.0337,0.0335,0.0337,0.031,0.0308,0.0317,0.0299,0.0296,0.0304,0.0276,0.0277,0.0326,0.0333,0.0338,0.0369,0.0267,0,0,0,0,0,0.0316,0.034,0.0334,0.0337,0.0341,0.0345,0.0344,0.0332,0.0318,0.0328,0.0317,0.0298,0.0293,0.029,0.0287,0.0302,0.0271,0.0272,0.0273,0.0338,0.0345,0.0351,0,0,0,0,0,0,0.0317,0.032,0.0333,0.0323,0.0323,0.0344,0.0321,0.0318,0.0317,0.0315,0.03,0.0297,0.0283,0.0289,0.0288,0.0302,0.0268,0.0271,0.0272,0.0273,0.034,0.0346,0.0351,0,0,0,0,0,0.0317,0.032,0.0334,0.0321,0.0322,0.0309,0.032,0.0318,0.0317,0.0299,0.0296,0.0309,0.0283,0.0281,0.0288,0.0304,0.0269,0.0269,0.0272,0.0273,0.0273,0.0343,0,0,0,0,0,0,0.0318,0.0313,0.0333,0.0332,0.0319,0.0308,0.0308,0.0318,0.03,0.0298,0.0306,0.0305,0.0284,0.0282,0.028,0.0306,0.027,0.0269,0.0269,0.0272,0.0273,0.0274,0,0,0,0,0,0,0.0311,0.0312,0.0333,0.033,0.0328,0.0307,0.0307,0.0302,0.03,0.0309,0.0307,0.0306,0.0286,0.0283,0.0281,0.0274,0.0271,0.027,0.027,0.0269,0.0273,0.0273,0,0,0,0,0,0,0.0311,0.0312,0.033,0.0329,0.0327,0.0313,0.0301,0.0306,0.03,0.031,0.0299,0.0299,0.0287,0.0285,0.0282,0.0275,0.0274,0.0271,0.027,0.027,0.027,0,0,0,0,0,0,0,0.0311,0.0312,0.0341,0.0328,0.0327,0.0322,0.0321,0.0321,0.03,0.03,0.0299,0.0299,0.0274,0.0273,0.0273,0.0277,0,0,0.0271,0.027,0,0,0,0,0,0,0,0,0.0311,0.0312,0.0341,0.0341,0.0341,0.0322,0.0321,0.0321,0.03,0.03,0.0299,0.0299,0.0274,0.0273,0.0273,0,0,0,0,0,0,0,0,0,0,0,0,0,0,0,0.0341,0.0341,0,0.0322,0.0321,0.0321,0.03,0.03,0.0299,0.0299,0.0274,0.0273,0.0273,0,0,0,0,0,0,0,0,0,0,0,0,0,0,0,0,0,0,0,0,0,0,0,0,0,0,0,0,0,0,0,0,0,0,0,0,0,0,0,0,0,0,0,0,0,0,0,0,0,0,0,0,0,0,0,0,0,0,0,0,0,0,0,0,0,0,0,0,0]}]]]